Погода в Лиски

Погода в Лиски : погода сейчас, прогноз погоды и архив. Всё, что Вы хотите узнать о погоде в Лиски!

Поиск расширенной информации на нашем сайте:

Другие новости

Новости СМИ2

Главная страница сайта

Новости сайта

03.07.2017

Напоминаем, что на нашем специализированном сайте Метеоцентр.Азия вы можете получить высокодетализированные автоматические прогнозы погоды по пунктам России, СНГ и мира в авиационном формате (включающие направление и скорость ветра, видимость, явления погоды, количество и форму облачности, нижнюю и верхнюю границу облачности).

Рекомендуем: У нас. http://wwprint.ru/ полноцветная печать

Погода в Лиски - сегодня

Время (UTC), дата Ветер
(°,м/с) 
Видим.   Явления Облачность Т
(°С)
Тd
(°С)
f(%) Тe
(°С)
Pmin
(гПа)
dP
(гПа)
Po
(мм)
O2
(г/м3)
Тmin Tmax R s Состояние
почвы
06 15.08.17 170 (Ю) 20000 м    3/0 верхняя 
[Ci fib]
+25.2 +10.8 40 +27  1018.6  0.9  754  276           
09 15.08.17 120 (ЮВ) 20000 м    3/3 600 м 
[Cu hum]
+32 +8.1 23 +32  1018.4  0.1  754  271           
12 15.08.17 070 (В) 20000 м    4/4 600 м 
[Cu hum]
+32.2 +8.2 23 +32  1017.9  -0.5  754  270           
15 15.08.17 020 (С) 20000 м    4/3 600 м верхняя 
[Sc|Ci fib]
+28.7 +12.8 38 +34  1018  754  272    +33.3       
18 15.08.17 010 (С) 20000 м    8/4 600 м верхняя 
[Sc|Ci fib]
+23.4 +15.8 62 +33  1019.8  1.5  755  277           
21 15.08.17 030 (СВ) 20000 м    3/0 верхняя 
[Ci fib]
+22.4 +15.6 65 +32  1020.1  0.3  755  278           
00 16.08.17 030 (СВ) 20000 м    ясно 
+20 +16 78 +30  1020.6  0.3  755  280           
03 16.08.17 020 (С) 20000 м    3/0 верхняя 
[Ci fib]
+18.2 +15.7 85 +29  1021.3  0.7  756  282  +18.1         
06 16.08.17 040 (СВ) 20000 м    ясно 
+22.3 +16 68 +33  1021.9  0.8  756  278           
09 16.08.17 070 (В) 20000 м    3/0 средняя 
[Ac trans]
+28.7 +11.1 34 +31  1021.1  -0.5  756  274           
12 16.08.17 050 (СВ) 20000 м    9/9 800 м 
[Cu Sc]
+29.6 +9.8 29 +30  1020.7  -0.4  756  273           
15 16.08.17 030 (СВ) 20000 м    3/3 600 м 
[Sc]
+29 +9.1 29 +29  1020.1  -0.6  755  274    +30.8       
18 16.08.17 050 (СВ) 10 км    3/3 600 м 
[Sc]
+24.8 +9.7 38 +25  1021.1  0.8  756  278           
21 16.08.17 040 (СВ) 20000 м    ясно 
+21.2 +10.6 51 +23  1021.7  0.4  756  281           
00 17.08.17 060 (СВ) 20000 м    ясно 
+19 +11.4 61 +24  1022.2  0.4  756  283           
03 17.08.17 020 (С) 20000 м    ясно 
+17 +11.7 71 +21  1022.7  0.4  757  285  +16.7         
06 17.08.17 060 (СВ) 20000 м    ясно 
+24.3 +11.4 44 +27  1022.4  757  278           
09 17.08.17 080 (В) 20000 м    ясно 
+30 +9.9 29 +31  1021.4  -0.7  756  273           
12 17.08.17 070 (В) 2{10}  20000 м    4/4 600 м 
[Cu hum]
+31.5 +8.3 24 +32  1020.3  -1  755  272           
15 17.08.17 070 (В) 20000 м    6/6 800 м 
[Sc]
+29.5 +7.4 25 +30  1019.7  -0.7  755  273    +31.8       
18 17.08.17 040 (СВ) 20000 м    ясно 
+24.6 +9.2 38 +25  1020.8  0.8  756  278           
21 17.08.17 060 (СВ) 20000 м    ясно 
+22.3 +10 46 +23  1021.2  0.3  756  280           
00 18.08.17 050 (СВ) 20000 м    ясно 
+20.4 +9.8 51 +21  1021.5  0.2  756  282           
03 18.08.17 360 (С) 20000 м    3/3 600 м 
[Sc]
+18.4 +10.6 60 +22  1022  0.4  756  284  +18.2         
06 18.08.17 080 (В) 20000 м    ясно 
+24.6 +11.3 43 +27  1022.3  0.7  757  278  +18         
Время (UTC), дата Ветер
(°,м/с) 
Видим.   Явления Облачность Т
(°С)
Тd
(°С)
f(%) Тe
(°С)
Pmin
(гПа)
dP
(гПа)
Po
(мм)
O2
(г/м3)
Тmin Tmax R s Состояние
почвы

Для получения пояснительной информации подведите курсор к названию столбца.

ПОГОДА в Лиски - архив

Всё, что Вы хотите узнать о погоде в Лиски - удобно и подробно!

Выберите нужную дату (начиная с 1 января 2015* года) и нажмите кнопку "Найти".
Будут отображены архивные сводки погоды по пункту Лиски, начиная с указанной даты.


Отображать данные в формате CSV (для использования в таблицах Excel)


Внимание! Наш архив погоды предназначен исключительно для личного некоммерческого использования в познавательных целях. Если Вам необходимы официальные справки о состоянии погоды (для производственных, юридических, коммерческих и т.п. целей), обращайтесь в органы Росгидромета.

*Примечание: данная дата относится к архиву по метеостанциям СССР (Россия, СНГ, Балтия).
Архив по метеостанциям Зарубежной Европы и Азии (кроме Китая) хранится 10 дней, по другим регионам земного шара (Китай, Африка, Америка, Австралия, Океания) - 1 день.

Лиски - район местоположения метеостанции


Название, широта, долгота, высота метеостанции:
Лиски 51°ш. 39.5°д. 115 м над ур. моря [Российская Федерация]

Дополнительная информация

В oтличие oт бoльшинства пoгoдных сайтoв мы публикуем пoдрoбную метеoинфoрмацию в детальнoм прoфессиoнальнoм фoрмате.

Характеристики температуры и влажнoсти вoздуха измеряются на высoте 2 м в тени вдали oт зданий и деревьев.
Скoрoсть ветра измеряется на высoте 10 м (на урoвне рoста челoвека скoрoсть ветра ниже в 1.5-2 раза). Если метеoстанция нахoдится в гoрoде или в лесу, тo скoрoсть ветра занижена на 2-4 м/с пo сравнению с oткрытым местoм. Скoрoсть ветра над акватoриями крупных рек и oзёр, а также на вершинах хoлмoв на 2-5 м/с выше, чем в oбычных услoвиях.
Атмoсфернoе давление в разных тoчках местнoсти мoжет значительнo oтличаться oт давления на метеoстанции, в зависимoсти oт услoвий рельефа (при пoдъёме на 10 м давление пoнижается примернo на 1 мм рт.ст.).